EW3320 Weather Reports


time (UTC)temp
C
wind
direction
speed
KPH
gust
KPH
rain 1hr
cm
rain 24hr
cm
rain mn
cm
humidity
%
barometer
mb
20260508054516 12 118 0.0 4.8 0.00 0.00 0.00 19 1010.4
20260508054025 12 127 0.0 4.8 0.00 0.00 0.00 19 1010.3
20260508053535 12 120 0.0 4.8 0.00 0.00 0.00 18 1010.3
20260508053049 12 117 0.0 6.4 0.00 0.00 0.00 18 1010.2
20260508052603 13 101 1.6 4.8 0.00 0.00 0.00 17 1010.2
20260508052017 13 120 0.0 6.4 0.00 0.00 0.00 17 1010.3
20260508051529 13 108 1.6 9.7 0.00 0.00 0.00 16 1010.3
20260508051040 13 105 1.6 9.7 0.00 0.00 0.00 16 1010.3
20260508050551 13 80 1.6 8.0 0.00 0.00 0.00 17 1010.4
20260508050016 13 105 1.6 8.0 0.00 0.00 0.00 17 1010.3
20260508045518 13 119 1.6 6.4 0.00 0.00 0.00 17 1010.4
20260508045033 13 115 0.0 6.4 0.00 0.00 0.00 17 1010.3
20260508044542 13 115 0.0 6.4 0.00 0.00 0.00 18 1010.4
20260508044057 12 122 0.0 8.0 0.00 0.00 0.00 18 1010.3
20260508043513 12 106 3.2 8.0 0.00 0.00 0.00 18 1010.3
20260508043031 13 126 0.0 3.2 0.00 0.00 0.00 18 1010.3
20260508042537 13 126 0.0 3.2 0.00 0.00 0.00 18 1010.3
20260508042046 13 126 0.0 1.6 0.00 0.00 0.00 17 1010.2
20260508041502 13 126 0.0 1.6 0.00 0.00 0.00 16 1010.2
20260508041012 13 126 0.0 1.6 0.00 0.00 0.00 16 1010.2
20260508040528 13 127 0.0 1.6 0.00 0.00 0.00 15 1010.2
20260508040043 13 126 0.0 3.2 0.00 0.00 0.00 15 1010.2
20260508035553 14 126 0.0 3.2 0.00 0.00 0.00 15 1010.2
20260508035100 14 126 0.0 4.8 0.00 0.00 0.00 15 1010.2
20260508035002 14 126 0.0 4.8 0.00 0.00 0.00 15 1010.2
20260508034523 14 126 1.6 4.8 0.00 0.00 0.00 15 1010.1
20260508034026 14 133 0.0 4.8 0.00 0.00 0.00 14 1010.0
20260508033540 15 133 0.0 4.8 0.00 0.00 0.00 14 1010.0
20260508033049 15 133 1.6 4.8 0.00 0.00 0.00 14 1009.9
20260508032504 15 129 0.0 4.8 0.00 0.00 0.00 13 1009.8
20260508032014 15 125 0.0 4.8 0.00 0.00 0.00 13 1009.6
20260508031528 16 131 0.0 4.8 0.00 0.00 0.00 13 1009.6
20260508031038 16 131 0.0 3.2 0.00 0.00 0.00 13 1009.5
20260508030552 16 131 0.0 3.2 0.00 0.00 0.00 12 1009.5
20260508030007 16 131 0.0 3.2 0.00 0.00 0.00 12 1009.4
20260508025520 16 131 0.0 4.8 0.00 0.00 0.00 12 1009.4
20260508025036 16 131 1.6 4.8 0.00 0.00 0.00 12 1009.3
20260508024548 16 131 1.6 4.8 0.00 0.00 0.00 11 1009.2
20260508024059 17 131 0.0 3.2 0.00 0.00 0.00 11 1009.2
20260508024005 17 130 0.0 3.2 0.00 0.00 0.00 11 1009.2
20260508023514 18 130 0.0 1.6 0.00 0.00 0.00 10 1009.1
20260508023028 18 130 0.0 1.6 0.00 0.00 0.00 10 1009.0
20260508022538 18 129 0.0 3.2 0.00 0.00 0.00 10 1009.0
20260508022053 19 130 0.0 3.2 0.00 0.00 0.00 10 1009.0
20260508021504 19 129 0.0 1.6 0.00 0.00 0.00 9 1008.9
20260508021026 20 129 0.0 3.2 0.00 0.00 0.00 9 1008.8
20260508020528 20 130 0.0 3.2 0.00 0.00 0.00 9 1008.8
20260508020045 20 124 0.0 4.8 0.00 0.00 0.00 8 1008.7
20260508015552 21 124 0.0 8.0 0.00 0.00 0.00 8 1008.7
20260508015012 21 149 1.6 8.0 0.00 0.00 0.00 8 1008.6
20260508014518 22 132 0.0 9.7 0.00 0.00 0.00 8 1008.6
20260508014032 22 134 1.6 9.7 0.00 0.00 0.00 8 1008.6
20260508013542 23 158 1.6 8.0 0.00 0.00 0.00 8 1008.5
20260508013056 23 143 0.0 4.8 0.00 0.00 0.00 9 1008.5
20260508012515 24 155 0.0 8.0 0.00 0.00 0.00 11 1008.4
20260508012022 25 169 0.0 8.0 0.00 0.00 0.00 10 1008.2
20260508011541 25 115 0.0 1.6 0.00 0.00 0.00 10 1008.3
20260508011047 24 115 0.0 6.4 0.00 0.00 0.00 11 1008.3
20260508010556 24 115 1.6 6.4 0.00 0.00 0.00 11 1008.3
20260508010022 24 115 0.0 6.4 0.00 0.00 0.00 10 1008.3
20260508005522 25 121 0.0 6.4 0.00 0.00 0.00 10 1008.3
20260508005037 25 122 0.0 6.4 0.00 0.00 0.00 11 1008.2
20260508004546 25 129 1.6 8.0 0.00 0.00 0.00 11 1008.2
20260508004100 25 111 1.6 8.0 0.00 0.00 0.00 10 1008.2
20260508004004 25 102 1.6 8.0 0.00 0.00 0.00 10 1008.2
20260508003516 25 122 1.6 6.4 0.00 0.00 0.00 10 1008.2
20260508003028 25 121 0.0 14.5 0.00 0.00 0.00 10 1008.3
20260508002543 24 122 1.6 14.5 0.00 0.00 0.00 10 1008.2
20260508002052 25 126 3.2 11.3 0.00 0.00 0.00 10 1008.3
20260508001510 25 103 0.0 9.7 0.00 0.00 0.00 9 1008.3
20260508001018 25 129 4.8 9.7 0.00 0.00 0.00 9 1008.3
20260508000535 26 124 0.0 3.2 0.00 0.00 0.00 9 1008.3
20260508000054 25 122 0.0 11.3 0.00 0.00 0.00 10 1008.4
20260507235600 25 118 0.0 6.4 0.00 0.00 0.00 10 1008.4
20260507235010 25 108 0.0 6.4 0.00 0.00 0.00 9 1008.5
20260507234530 25 110 1.6 8.0 0.00 0.00 0.00 9 1008.5
20260507234032 25 120 1.6 11.3 0.00 0.00 0.00 10 1008.6
20260507233546 25 124 3.2 11.3 0.00 0.00 0.00 9 1008.6
20260507233056 25 143 3.2 8.0 0.00 0.00 0.00 8 1008.7
20260507232515 25 117 3.2 8.0 0.00 0.00 0.00 8 1008.7
20260507232021 25 163 1.6 11.3 0.00 0.00 0.00 9 1008.8
20260507231543 25 153 3.2 11.3 0.00 0.00 0.00 9 1008.9
20260507231046 25 124 1.6 9.7 0.00 0.00 0.00 8 1008.9
20260507230600 25 115 0.0 9.7 0.00 0.00 0.00 9 1009.0
20260507230502 25 115 0.0 9.7 0.00 0.00 0.00 9 1009.0
20260507230012 24 119 3.2 9.7 0.00 0.00 0.00 9 1009.0
20260507225530 24 111 1.6 11.3 0.00 0.00 0.00 9 1009.2
20260507225039 25 113 3.2 11.3 0.00 0.00 0.00 9 1009.2
20260507224552 25 128 3.2 11.3 0.00 0.00 0.00 9 1009.3
20260507224008 25 124 0.0 11.3 0.00 0.00 0.00 9 1009.3
20260507223520 25 118 0.0 14.5 0.00 0.00 0.00 9 1009.4
20260507223033 25 121 3.2 14.5 0.00 0.00 0.00 9 1009.4
20260507222541 25 114 1.6 11.3 0.00 0.00 0.00 9 1009.6
20260507222056 25 115 3.2 11.3 0.00 0.00 0.00 8 1009.7
20260507221510 25 129 1.6 11.3 0.00 0.00 0.00 9 1009.8
20260507221023 25 86 4.8 11.3 0.00 0.00 0.00 8 1009.8
20260507220536 25 118 4.8 11.3 0.00 0.00 0.00 8 1009.9
20260507220048 26 155 0.0 9.7 0.00 0.00 0.00 7 1010.0
20260507215558 25 122 1.6 9.7 0.00 0.00 0.00 8 1010.1
20260507215016 26 144 3.2 9.7 0.00 0.00 0.00 8 1010.3
20260507214529 26 148 0.0 4.8 0.00 0.00 0.00 7 1010.4
20260507214040 26 150 0.0 4.8 0.00 0.00 0.00 7 1010.5
20260507213550 25 160 0.0 8.0 0.00 0.00 0.00 8 1010.6
20260507213006 23 108 0.0 11.3 0.00 0.00 0.00 9 1010.8
20260507212516 23 120 1.6 9.7 0.00 0.00 0.00 8 1010.9
20260507212033 24 134 0.0 6.4 0.00 0.00 0.00 7 1011.1
20260507211550 25 130 1.6 6.4 0.00 0.00 0.00 8 1011.2
20260507211054 25 153 0.0 8.0 0.00 0.00 0.00 8 1011.2
20260507210506 25 122 1.6 9.7 0.00 0.00 0.00 9 1011.4
20260507210021 25 147 0.0 9.7 0.00 0.00 0.00 10 1011.4
20260507205530 24 146 1.6 8.0 0.00 0.00 0.00 10 1011.6
20260507205044 24 120 1.6 8.0 0.00 0.00 0.00 11 1011.7
20260507204555 25 129 0.0 3.2 0.00 0.00 0.00 11 1011.9
20260507204009 24 144 0.0 4.8 0.00 0.00 0.00 11 1012.0
20260507203525 23 139 0.0 11.3 0.00 0.00 0.00 12 1012.1
20260507203035 22 151 3.2 11.3 0.00 0.00 0.00 11 1012.2
20260507202552 22 125 1.6 8.0 0.00 0.00 0.00 12 1012.3
20260507202102 22 124 4.8 8.0 0.00 0.00 0.00 13 1012.4
20260507201517 22 121 1.6 9.7 0.00 0.00 0.00 14 1012.4
20260507201026 22 319 3.2 8.0 0.00 0.00 0.00 13 1012.6
20260507200540 22 161 0.0 6.4 0.00 0.00 0.00 14 1012.7
20260507200052 22 126 1.6 6.4 0.00 0.00 0.00 13 1012.7
20260507195507 22 141 0.0 8.0 0.00 0.00 0.00 15 1012.7
20260507195024 22 151 1.6 8.0 0.00 0.00 0.00 15 1012.9
20260507194537 22 179 1.6 11.3 0.00 0.00 0.00 14 1012.9
20260507194043 22 131 3.2 11.3 0.00 0.00 0.00 14 1013.0
20260507193557 21 278 1.6 8.0 0.00 0.00 0.00 15 1013.1
20260507193017 21 127 0.0 8.0 0.00 0.00 0.00 16 1013.2
20260507192523 21 105 1.6 8.0 0.00 0.00 0.00 15 1013.3
20260507192034 20 150 1.6 11.3 0.00 0.00 0.00 16 1013.4
20260507191548 20 153 3.2 11.3 0.00 0.00 0.00 19 1013.5
20260507191058 20 313 0.0 11.3 0.00 0.00 0.00 19 1013.5
20260507190518 20 198 6.4 11.3 0.00 0.00 0.00 19 1013.7
20260507190024 20 110 0.0 8.0 0.00 0.00 0.00 20 1013.7
20260507185537 20 129 1.6 11.3 0.00 0.00 0.00 20 1013.8
20260507185047 20 139 0.0 11.3 0.00 0.00 0.00 21 1014.0
20260507184504 20 212 1.6 8.0 0.00 0.00 0.00 20 1014.1
20260507184022 19 153 0.0 9.7 0.00 0.00 0.00 21 1014.3
20260507183529 18 163 4.8 9.7 0.00 0.00 0.00 20 1014.3
20260507183042 18 167 3.2 9.7 0.00 0.00 0.00 21 1014.4
20260507182551 18 168 3.2 11.3 0.00 0.00 0.00 23 1014.5
20260507182007 19 227 3.2 9.7 0.00 0.00 0.00 21 1014.6
20260507181518 18 108 1.6 6.4 0.00 0.00 0.00 22 1014.8
20260507181032 18 160 0.0 3.2 0.00 0.00 0.00 24 1014.8
20260507180546 17 122 0.0 12.9 0.00 0.00 0.00 24 1014.9
20260507180105 17 271 6.4 12.9 0.00 0.00 0.00 24 1015.0
20260507175511 17 159 0.0 11.3 0.00 0.00 0.00 25 1015.1
20260507175021 17 103 3.2 11.3 0.00 0.00 0.00 24 1015.3
20260507174545 17 277 3.2 8.0 0.00 0.00 0.00 24 1015.3
20260507174046 17 138 0.0 6.4 0.00 0.00 0.00 26 1015.4
20260507173555 17 113 0.0 6.4 0.00 0.00 0.00 23 1015.5
20260507173016 17 146 0.0 6.4 0.00 0.00 0.00 25 1015.6
20260507172520 17 165 0.0 6.4 0.00 0.00 0.00 25 1015.7
20260507172031 16 149 0.0 11.3 0.00 0.00 0.00 27 1015.8
20260507171600 16 298 1.6 11.3 0.00 0.00 0.00 26 1016.0
20260507171057 16 262 1.6 9.7 0.00 0.00 0.00 27 1016.1
20260507170509 15 130 1.6 9.7 0.00 0.00 0.00 28 1016.1
20260507170025 16 265 3.2 9.7 0.00 0.00 0.00 27 1016.1
20260507165535 16 165 3.2 9.7 0.00 0.00 0.00 29 1016.2
20260507165049 16 255 1.6 6.4 0.00 0.00 0.00 29 1016.1
20260507164558 15 155 0.0 4.8 0.00 0.00 0.00 28 1016.3
20260507164506 15 155 0.0 4.8 0.00 0.00 0.00 28 1016.3
20260507164014 15 165 0.0 8.0 0.00 0.00 0.00 30 1016.4
20260507163528 15 165 1.6 8.0 0.00 0.00 0.00 31 1016.5
20260507163037 15 170 0.0 6.4 0.00 0.00 0.00 32 1016.5
20260507162554 14 153 1.6 6.4 0.00 0.00 0.00 34 1016.5
20260507162004 14 164 1.6 8.0 0.00 0.00 0.00 34 1016.5
20260507161520 13 160 1.6 12.9 0.00 0.00 0.00 35 1016.6
20260507161027 13 160 4.8 12.9 0.00 0.00 0.00 35 1016.7
20260507160542 13 165 0.0 6.4 0.00 0.00 0.00 35 1016.7
20260507160112 13 162 0.0 4.8 0.00 0.00 0.00 36 1016.7
20260507155507 13 176 0.0 4.8 0.00 0.00 0.00 37 1016.7
20260507155017 12 157 0.0 6.4 0.00 0.00 0.00 37 1016.8
20260507154533 12 162 1.6 6.4 0.00 0.00 0.00 39 1016.9
20260507154041 12 157 1.6 8.0 0.00 0.00 0.00 39 1017.0
20260507153601 12 148 1.6 8.0 0.00 0.00 0.00 40 1017.0
20260507153007 12 155 0.0 6.4 0.00 0.00 0.00 43 1017.0
20260507152522 11 141 0.0 6.4 0.00 0.00 0.00 44 1017.2
20260507152033 11 149 0.0 6.4 0.00 0.00 0.00 44 1017.2
20260507151545 11 162 0.0 6.4 0.00 0.00 0.00 46 1017.2
20260507151055 10 150 0.0 6.4 0.00 0.00 0.00 45 1017.3
20260507150512 10 154 0.0 3.2 0.00 0.00 0.00 47 1017.3
20260507150021 10 157 0.0 8.0 0.00 0.00 0.00 49 1017.4
20260507145539 9 153 3.2 8.0 0.00 0.00 0.00 50 1017.4
20260507145049 9 167 1.6 9.7 0.00 0.00 0.00 50 1017.4
20260507144559 9 169 1.6 9.7 0.00 0.00 0.00 50 1017.5
20260507144501 9 154 1.6 9.7 0.00 0.00 0.00 50 1017.4
20260507144018 8 132 3.2 9.7 0.00 0.00 0.00 51 1017.5
20260507143528 8 165 3.2 9.7 0.00 0.00 0.00 51 1017.5
20260507143042 8 168 3.2 9.7 0.00 0.00 0.00 51 1017.6
20260507142553 8 169 1.6 12.9 0.00 0.00 0.00 51 1017.6
20260507142007 8 193 0.0 9.7 0.00 0.00 0.00 52 1017.7
20260507141517 8 163 1.6 9.7 0.00 0.00 0.00 52 1017.7
20260507141031 7 176 1.6 8.0 0.00 0.00 0.00 52 1017.7
20260507140541 7 155 1.6 8.0 0.00 0.00 0.00 53 1017.7
20260507140111 7 155 3.2 8.0 0.00 0.00 0.00 52 1017.7
20260507135512 7 150 1.6 11.3 0.00 0.00 0.00 53 1017.7
20260507135027 6 168 1.6 8.0 0.00 0.00 0.00 54 1017.8
20260507134537 6 158 3.2 8.0 0.00 0.00 0.00 54 1017.9
20260507134051 6 154 1.6 11.3 0.00 0.00 0.00 55 1017.9
20260507133503 5 151 1.6 11.3 0.00 0.00 0.00 56 1017.8
20260507133019 5 148 1.6 8.0 0.00 0.00 0.00 55 1017.8
20260507132528 5 179 1.6 8.0 0.00 0.00 0.00 55 1017.8
20260507132045 5 147 1.6 6.4 0.00 0.00 0.00 56 1017.7
20260507131618 4 159 0.0 8.0 0.00 0.00 0.00 57 1017.7
20260507131011 4 141 0.0 8.0 0.00 0.00 0.00 58 1017.7
20260507130521 4 150 1.6 8.0 0.00 0.00 0.00 60 1017.7
20260507130035 4 127 1.6 8.0 0.00 0.00 0.00 63 1017.7
20260507125547 4 155 1.6 6.4 0.00 0.00 0.00 67 1017.6
20260507125004 4 141 1.6 6.4 0.00 0.00 0.00 68 1017.5
20260507124521 4 158 1.6 4.8 0.00 0.00 0.00 69 1017.5
20260507124029 3 146 1.6 6.4 0.00 0.00 0.00 69 1017.5
20260507123544 3 125 1.6 6.4 0.00 0.00 0.00 70 1017.5
20260507123058 3 130 1.6 9.7 0.00 0.00 0.00 70 1017.3
20260507122513 3 154 1.6 9.7 0.00 0.00 0.00 70 1017.3
20260507122019 3 143 1.6 6.4 0.00 0.00 0.00 70 1017.2
20260507121533 3 142 1.6 6.4 0.00 0.00 0.00 69 1017.2
20260507121043 3 148 1.6 6.4 0.00 0.00 0.00 69 1017.1
20260507120557 3 155 1.6 6.4 0.00 0.00 0.00 69 1017.1
20260507120025 3 142 1.6 8.0 0.00 0.00 0.00 68 1017.1
20260507115525 3 150 1.6 6.4 0.00 0.00 0.00 67 1017.1
20260507115034 4 153 1.6 6.4 0.00 0.00 0.00 67 1017.1
20260507114549 4 153 1.6 9.7 0.00 0.00 0.00 67 1017.0
20260507114003 4 162 1.6 6.4 0.00 0.00 0.00 67 1017.0
20260507113518 3 174 1.6 6.4 0.00 0.00 0.00 65 1017.0
20260507113057 4 147 0.0 9.7 0.00 0.00 0.00 65 1017.1
20260507112543 4 153 3.2 9.7 0.00 0.00 0.00 64 1017.1
20260507112054 4 129 1.6 11.3 0.00 0.00 0.00 63 1017.1
20260507111507 4 152 3.2 11.3 0.00 0.00 0.00 62 1017.2
20260507111016 4 152 4.8 12.9 0.00 0.00 0.00 60 1017.2
20260507110531 4 146 4.8 12.9 0.00 0.00 0.00 58 1017.1
20260507110041 5 158 1.6 9.7 0.00 0.00 0.00 57 1017.2
20260507105554 5 155 1.6 8.0 0.00 0.00 0.00 56 1017.1
20260507105011 5 130 1.6 11.3 0.00 0.00 0.00 56 1017.2
20260507104521 5 117 3.2 9.7 0.00 0.00 0.00 55 1017.2
20260507104035 5 125 3.2 9.7 0.00 0.00 0.00 53 1017.1
20260507103546 5 170 3.2 8.0 0.00 0.00 0.00 52 1017.1
20260507103100 5 153 1.6 9.7 0.00 0.00 0.00 51 1017.2
20260507103002 5 141 1.6 9.7 0.00 0.00 0.00 50 1017.1
20260507102511 5 134 3.2 9.7 0.00 0.00 0.00 48 1017.1
20260507102025 5 132 3.2 11.3 0.00 0.00 0.00 46 1017.2
20260507101536 5 122 3.2 11.3 0.00 0.00 0.00 44 1017.0
20260507101053 5 154 1.6 11.3 0.00 0.00 0.00 43 1017.0
20260507100559 4 148 1.6 8.0 0.00 0.00 0.00 43 1017.0
20260507100501 4 133 1.6 8.0 0.00 0.00 0.00 42 1017.0
20260507100029 4 150 0.0 4.8 0.00 0.00 0.00 41 1017.1
20260507095525 4 133 0.0 6.4 0.00 0.00 0.00 40 1017.1
20260507095042 4 125 1.6 6.4 0.00 0.00 0.00 40 1017.2
20260507094550 4 126 0.0 6.4 0.00 0.00 0.00 40 1017.2
20260507094005 4 131 1.6 6.4 0.00 0.00 0.00 40 1017.0
20260507093515 4 131 1.6 6.4 0.00 0.00 0.00 40 1017.1
20260507093034 5 142 0.0 6.4 0.00 0.00 0.00 40 1017.0
20260507092539 5 134 0.0 6.4 0.00 0.00 0.00 39 1017.0
20260507092056 5 148 1.6 6.4 0.00 0.00 0.00 39 1017.0
20260507091504 5 137 0.0 8.0 0.00 0.00 0.00 38 1017.1
20260507091019 5 137 1.6 8.0 0.00 0.00 0.00 38 1017.0
20260507090529 5 146 0.0 1.6 0.00 0.00 0.00 38 1017.1
20260507090042 5 145 0.0 1.6 0.00 0.00 0.00 38 1017.1
20260507085552 5 145 0.0 3.2 0.00 0.00 0.00 37 1017.1
20260507085009 5 145 0.0 3.2 0.00 0.00 0.00 36 1017.0
20260507084542 6 146 0.0 4.8 0.00 0.00 0.00 36 1016.9
20260507084032 6 146 0.0 8.0 0.00 0.00 0.00 35 1016.9
20260507083549 6 147 0.0 8.0 0.00 0.00 0.00 34 1016.8
20260507083057 6 162 0.0 11.3 0.00 0.00 0.00 34 1016.8
20260507082514 7 172 1.6 11.3 0.00 0.00 0.00 33 1016.7
20260507082022 7 143 3.2 12.9 0.00 0.00 0.00 33 1016.4
20260507081538 7 116 3.2 12.9 0.00 0.00 0.00 34 1016.2
20260507081050 7 127 4.8 11.3 0.00 0.00 0.00 34 1016.2
20260507080509 6 119 4.8 9.7 0.00 0.00 0.00 34 1016.3
20260507080018 6 132 1.6 8.0 0.00 0.00 0.00 34 1016.3
20260507075535 6 128 1.6 8.0 0.00 0.00 0.00 35 1016.2
20260507075042 7 122 1.6 8.0 0.00 0.00 0.00 34 1016.2
20260507074557 7 131 3.2 8.0 0.00 0.00 0.00 34 1016.2
20260507074008 7 122 3.2 9.7 0.00 0.00 0.00 34 1016.3
20260507073522 7 121 3.2 9.7 0.00 0.00 0.00 33 1016.2
20260507073033 7 123 3.2 11.3 0.00 0.00 0.00 33 1016.2
20260507072547 7 123 3.2 11.3 0.00 0.00 0.00 33 1016.2
20260507072101 7 115 3.2 9.7 0.00 0.00 0.00 32 1016.1
20260507071516 8 129 3.2 9.7 0.00 0.00 0.00 32 1016.1
20260507071022 8 126 4.8 9.7 0.00 0.00 0.00 32 1016.0
20260507070537 8 117 3.2 9.7 0.00 0.00 0.00 31 1016.1
20260507070059 8 127 3.2 9.7 0.00 0.00 0.00 31 1016.0
20260507065502 8 131 1.6 9.7 0.00 0.00 0.00 31 1016.0
20260507065016 8 124 1.6 8.0 0.00 0.00 0.00 31 1016.0
20260507064527 8 121 3.2 11.3 0.00 0.00 0.00 31 1016.0
20260507064042 8 138 1.6 9.7 0.00 0.00 0.00 31 1015.9
20260507063551 8 120 3.2 8.0 0.00 0.00 0.00 31 1015.9
20260507063007 8 131 1.6 9.7 0.00 0.00 0.00 31 1015.8
20260507062518 8 115 1.6 8.0 0.00 0.00 0.00 31 1015.7
20260507062032 8 135 3.2 11.3 0.00 0.00 0.00 31 1015.7
20260507061543 8 131 3.2 11.3 0.00 0.00 0.00 32 1015.7
20260507061057 8 140 3.2 8.0 0.00 0.00 0.00 33 1015.6
20260507060508 8 117 3.2 9.7 0.00 0.00 0.00 33 1015.6
20260507060032 8 116 3.2 9.7 0.00 0.00 0.00 33 1015.5
20260507055530 9 127 3.2 9.7 0.00 0.00 0.00 33 1015.5
20260507055040 9 125 3.2 9.7 0.00 0.00 0.00 33 1015.4